This demonstration page uses our WeatherBlox Daily Observations layout. Learn more.

Left ArrowRight Arrow

38.88101, -77.10428

Hourly Observations for May 9, 2016

Temp ( °F °C ) Dew Point ( °F °C ) Humidity (%) Winds ( mph kmh ) Pressure ( in mb ) Visibility ( mi km ) Precip ( " mm )
12:52 am 00:52 Partly Cloudy 55 12.8 40 4.4 57 57 NNW 5 7 30.02 1017 10 16 N/A
1:52 am 01:52 Mostly Cloudy 55 12.8 42 5.6 62 62 NNW 5 7 30.03 1017 10 16 N/A
2:52 am 02:52 Mostly Cloudy 54 12.2 37 2.8 53 53 SSW 3 6 30.03 1017 10 16 N/A
3:52 am 03:52 Mostly Cloudy 52 11.1 43 6.1 72 72 SSW 5 7 30.04 1017 10 16 N/A
4:52 am 04:52 Mostly Cloudy 50 10 44 6.7 80 80 SW 5 7 30.04 1017 10 16 N/A
5:52 am 05:52 Mostly Cloudy 52 11.1 42 5.6 69 69 N N/A 30.04 1017 10 16 N/A
6:52 am 06:52 Cloudy 52 11.1 45 7.2 77 77 SW 5 7 30.07 1018 10 16 N/A
7:52 am 07:52 Cloudy 55 12.8 45 7.2 69 69 SSW 6 9 30.08 1019 10 16 N/A
8:52 am 08:52 Cloudy 57 13.9 50 10 78 78 SSE 5 7 30.07 1018 10 16 N/A
9:52 am 09:52 Cloudy 59 15 50 10 72 72 S 8 13 30.09 1019 10 16 N/A
10:52 am 10:52 Cloudy with Light Rain 61 16.1 43 6.1 52 52 SW 13 20 30.12 1020 10 16 N/A
11:52 am 11:52 Cloudy with Light Rain 57 13.9 50 10 78 78 SW 12 19 30.16 1021 10 16 0.01 0.25
12:12 pm 12:12 Cloudy with Light Rain 55 13 52 11 88 88 SW 8 13 30.18 1022 6 10 N/A
12:52 pm 12:52 Cloudy with Light Rain 57 13.9 51 10.6 81 81 SW 9 15 30.15 1021 10 16 0.02 0.51
1:52 pm 13:52 Cloudy with Light Rain 58 14.4 52 11.1 81 81 N N/A 30.12 1020 10 16 0.03 0.76
2:52 pm 14:52 Cloudy 59 15 53 11.7 81 81 S 5 7 30.09 1019 10 16 N/A
3:52 pm 15:52 Cloudy 63 17.2 55 12.8 76 76 S 7 11 30.08 1019 10 16 N/A
4:52 pm 16:52 Cloudy 62 16.7 55 12.8 78 78 S 8 13 30.07 1018 10 16 N/A
5:52 pm 17:52 Cloudy 63 17.2 54 12.2 73 73 S 8 13 30.06 1018 10 16 N/A
6:52 pm 18:52 Cloudy 62 16.7 55 12.8 78 78 S 9 15 30.07 1018 10 16 N/A
7:52 pm 19:52 Cloudy 61 16.1 51 10.6 70 70 S 5 7 30.09 1019 10 16 N/A
8:52 pm 20:52 Cloudy 61 16.1 53 11.7 75 75 SSE 5 7 30.10 1019 10 16 N/A
9:52 pm 21:52 Cloudy 60 15.6 54 12.2 80 80 S 5 7 30.11 1020 10 16 N/A
10:52 pm 22:52 Mostly Cloudy 61 16.1 53 11.7 75 75 SSE 3 6 30.11 1020 10 16 N/A
11:52 pm 23:52 Cloudy 59 15 55 12.8 87 87 S 5 7 30.12 1020 10 16 N/A

Powered by AerisWeather